This is the latest recevied weather packets stored in our database for station/object SP9KB-14. If no packets are shown the sender has not sent any weather packets the latest 10 day(s).
| Time | Temp. | Humidity | Pressure | Rain* | Wind** | Luminosity | Snow |
|---|---|---|---|---|---|---|---|
| 1777969866 | 23.89° C | 42% | 1033.2 hPa | 0 mm | - | - | - |
| 1777969566 | 23.33° C | 41% | 1033.2 hPa | 0 mm | - | - | - |
| 1777969265 | 23.33° C | 41% | 1033.3 hPa | 0 mm | - | - | - |
| 1777968964 | 23.33° C | 41% | 1033.5 hPa | 0 mm | - | - | - |
| 1777968664 | 23.33° C | 41% | 1033.5 hPa | 0 mm | - | - | - |
| 1777968363 | 23.33° C | 41% | 1033.4 hPa | 0 mm | - | - | - |
| 1777968063 | 23.33° C | 40% | 1033.6 hPa | 0 mm | - | - | - |
| 1777967762 | 23.33° C | 41% | 1033.8 hPa | 0 mm | - | - | - |
| 1777967462 | 23.33° C | 41% | 1033.7 hPa | 0 mm | - | - | - |
| 1777967161 | 23.33° C | 40% | 1033.7 hPa | 0 mm | - | - | - |
| 1777966861 | 22.78° C | 41% | 1033.9 hPa | 0 mm | - | - | - |
| 1777966560 | 23.33° C | 41% | 1033.8 hPa | 0 mm | - | - | - |
| 1777966260 | 22.78° C | 42% | 1033.8 hPa | 0 mm | - | - | - |
| 1777965959 | 22.78° C | 42% | 1033.9 hPa | 0 mm | - | - | - |
| 1777965659 | 23.89° C | 41% | 1034 hPa | 0 mm | - | - | - |
| 1777965358 | 22.22° C | 42% | 1033.9 hPa | 0 mm | - | - | - |
| 1777965057 | 22.78° C | 43% | 1034.2 hPa | 0 mm | - | - | - |
| 1777964757 | 22.22° C | 44% | 1034.1 hPa | 0 mm | - | - | - |
| 1777964456 | 21.67° C | 43% | 1034 hPa | 0 mm | - | - | - |
| 1777964156 | 21.67° C | 44% | 1034.1 hPa | 0 mm | - | - | - |
| 1777963855 | 21.11° C | 43% | 1034.1 hPa | 0 mm | - | - | - |
| 1777963554 | 21.11° C | 44% | 1034.3 hPa | 0 mm | - | - | - |
| 1777963254 | 21.11° C | 45% | 1034.2 hPa | 0 mm | - | - | - |
| 1777962954 | 21.11° C | 47% | 1034.2 hPa | 0 mm | - | - | - |
| 1777962653 | 21.11° C | 48% | 1034.2 hPa | 0 mm | - | - | - |
* Rain latest hour (hover to see other rain measurements)
** Current wind speed in m/s (hover to see current wind gust speed)